This is the latest recevied weather packets stored in our database for station/object WA1OUI. If no packets are shown the sender has not sent any weather packets the latest 10 day(s).
| Time | Temp. | Humidity | Pressure | Rain* | Wind** | Luminosity | Snow |
|---|---|---|---|---|---|---|---|
| 1777909702 | 19.44° C | 30% | 1008.6 hPa | 0 mm | - | 778 W/m² | - |
| 1777909399 | 19.44° C | 29% | 1008.6 hPa | 0 mm | - | 774 W/m² | - |
| 1777909097 | 19.44° C | 29% | 1008.6 hPa | 0 mm | - | 766 W/m² | - |
| 1777908795 | 19.44° C | 32% | 1008.8 hPa | 0 mm | - | 759 W/m² | - |
| 1777908491 | 18.89° C | 32% | 1008.8 hPa | 0 mm | - | 750 W/m² | - |
| 1777908188 | 18.33° C | 31% | 1009 hPa | 0 mm | - | 656 W/m² | - |
| 1777907885 | 18.33° C | 33% | 1008.8 hPa | 0 mm | - | 461 W/m² | - |
| 1777907580 | 18.33° C | 32% | 1009 hPa | 0 mm | - | 405 W/m² | - |
| 1777907276 | 18.33° C | 32% | 1009 hPa | 0 mm | - | 356 W/m² | - |
| 1777906973 | 18.33° C | 33% | 1008.9 hPa | 0 mm | - | 373 W/m² | - |
| 1777906671 | 18.33° C | 33% | 1009.2 hPa | 0 mm | - | 210 W/m² | - |
| 1777906367 | 18.33° C | 31% | 1009.1 hPa | 0 mm | - | 562 W/m² | - |
| 1777906063 | 18.33° C | 32% | 1009.1 hPa | 0 mm | - | 727 W/m² | - |
| 1777905760 | 18.33° C | 32% | 1009.1 hPa | 0 mm | - | 645 W/m² | - |
| 1777905457 | 17.78° C | 34% | 1009.2 hPa | 0 mm | - | 614 W/m² | - |
| 1777905155 | 17.78° C | 37% | 1009.4 hPa | 0 mm | - | 475 W/m² | - |
| 1777904851 | 17.78° C | 33% | 1009.4 hPa | 0 mm | - | 245 W/m² | - |
| 1777904549 | 17.22° C | 35% | 1009.4 hPa | 0 mm | - | 112 W/m² | - |
| 1777904245 | 17.22° C | 34% | 1009.4 hPa | 0 mm | - | 114 W/m² | - |
| 1777903943 | 17.22° C | 35% | 1009.4 hPa | 0 mm | - | 146 W/m² | - |
| 1777903639 | 17.22° C | 35% | 1009.4 hPa | 0 mm | - | 116 W/m² | - |
| 1777903335 | 17.22° C | 34% | 1009.4 hPa | 0 mm | - | 112 W/m² | - |
| 1777903032 | 16.67° C | 37% | 1009.5 hPa | 0 mm | - | 271 W/m² | - |
| 1777902728 | 16.67° C | 36% | 1009.2 hPa | 0 mm | - | 398 W/m² | - |
| 1777902426 | 16.11° C | 36% | 1009.5 hPa | 0 mm | - | 180 W/m² | - |
* Rain latest hour (hover to see other rain measurements)
** Current wind speed in m/s (hover to see current wind gust speed)